Time,TemperatureF,DewpointF,PressureIn,WindDirection,WindDirectionDegrees,WindSpeedMPH,WindSpeedGustMPH,Humidity,HourlyPrecipIn,Conditions,Clouds,dailyrainin,SoftwareType,DateUTC
2013-03-14 00:02:00,62.0,35.0,-100.00,SSE,163,4.0,6.0,36,0.00,,,0.00,,2013-03-14 07:02:00,
2013-03-14 00:11:00,62.0,35.0,-100.00,SSE,163,4.0,6.0,36,0.00,,,0.00,,2013-03-14 07:11:00,
2013-03-14 00:43:00,61.0,38.0,-100.00,SSE,166,4.0,7.0,43,0.00,,,0.00,,2013-03-14 07:43:00,
2013-03-14 00:52:00,61.0,38.0,-100.00,SSE,166,4.0,7.0,43,0.00,,,0.00,,2013-03-14 07:52:00,
2013-03-14 01:02:00,61.0,38.0,-100.00,SSE,166,4.0,7.0,43,0.00,,,0.00,,2013-03-14 08:02:00,
2013-03-14 01:11:00,61.0,38.0,-100.00,SSE,166,4.0,7.0,43,0.00,,,0.00,,2013-03-14 08:11:00,
2013-03-14 01:42:00,60.0,37.0,-100.00,South,178,4.0,7.0,42,0.00,,,-99.99,,2013-03-14 08:42:00,
2013-03-14 01:52:00,60.0,37.0,-100.00,South,178,4.0,7.0,42,0.00,,,-99.99,,2013-03-14 08:52:00,
2013-03-14 02:01:00,60.0,37.0,-100.00,South,178,4.0,7.0,42,0.00,,,-99.99,,2013-03-14 09:01:00,
2013-03-14 02:12:00,60.0,37.0,-100.00,South,178,4.0,7.0,42,0.00,,,-99.99,,2013-03-14 09:12:00,
2013-03-14 02:42:00,59.0,36.0,-100.00,South,174,4.0,8.0,42,0.00,,,0.00,,2013-03-14 09:42:00,
2013-03-14 02:52:00,59.0,36.0,-100.00,South,174,4.0,8.0,42,0.00,,,0.00,,2013-03-14 09:52:00,
2013-03-14 03:02:00,59.0,36.0,-100.00,South,174,4.0,8.0,42,0.00,,,0.00,,2013-03-14 10:02:00,
2013-03-14 03:12:00,59.0,36.0,-100.00,South,174,4.0,8.0,42,0.00,,,0.00,,2013-03-14 10:12:00,
2013-03-14 03:32:00,57.0,28.0,-100.00,South,170,4.0,6.0,33,0.00,,,0.00,,2013-03-14 10:32:00,
2013-03-14 03:42:00,57.0,28.0,-100.00,South,170,4.0,6.0,33,0.00,,,0.00,,2013-03-14 10:42:00,
2013-03-14 03:52:00,57.0,28.0,-100.00,South,170,4.0,6.0,33,0.00,,,0.00,,2013-03-14 10:52:00,
2013-03-14 04:02:00,57.0,28.0,-100.00,South,170,4.0,6.0,33,0.00,,,0.00,,2013-03-14 11:02:00,
2013-03-14 04:12:00,57.0,28.0,-100.00,South,170,4.0,6.0,33,0.00,,,0.00,,2013-03-14 11:12:00,
2013-03-14 04:33:00,55.0,31.0,-100.00,SSE,163,5.0,7.0,40,0.00,,,-99.99,,2013-03-14 11:33:00,
2013-03-14 04:42:00,55.0,31.0,-100.00,SSE,163,5.0,7.0,40,0.00,,,-99.99,,2013-03-14 11:42:00,
2013-03-14 04:52:00,55.0,31.0,-100.00,SSE,163,5.0,7.0,40,0.00,,,-99.99,,2013-03-14 11:52:00,
2013-03-14 05:02:00,55.0,31.0,-100.00,SSE,163,5.0,7.0,40,0.00,,,-99.99,,2013-03-14 12:02:00,
2013-03-14 05:11:00,55.0,31.0,-100.00,SSE,163,5.0,7.0,40,0.00,,,-99.99,,2013-03-14 12:11:00,
2013-03-14 05:42:00,56.0,30.0,-100.00,South,171,4.0,7.0,37,0.00,,,0.00,,2013-03-14 12:42:00,
2013-03-14 05:52:00,56.0,30.0,-100.00,South,171,4.0,7.0,37,0.00,,,0.00,,2013-03-14 12:52:00,
2013-03-14 06:02:00,56.0,30.0,-100.00,South,171,4.0,7.0,37,0.00,,,0.00,,2013-03-14 13:02:00,
2013-03-14 06:12:00,56.0,30.0,-100.00,South,171,4.0,7.0,37,0.00,,,0.00,,2013-03-14 13:12:00,
2013-03-14 06:32:00,55.0,28.0,-100.00,SSE,158,4.0,7.0,35,0.00,,,0.00,,2013-03-14 13:32:00,
2013-03-14 06:43:00,55.0,28.0,-100.00,SSE,158,4.0,7.0,35,0.00,,,0.00,,2013-03-14 13:43:00,
2013-03-14 06:52:00,55.0,28.0,-100.00,SSE,158,4.0,7.0,35,0.00,,,0.00,,2013-03-14 13:52:00,
2013-03-14 07:02:00,55.0,28.0,-100.00,SSE,158,4.0,7.0,35,0.00,,,0.00,,2013-03-14 14:02:00,
2013-03-14 07:12:00,55.0,28.0,-100.00,SSE,158,4.0,7.0,35,0.00,,,0.00,,2013-03-14 14:12:00,
2013-03-14 07:42:00,54.0,28.0,-100.00,SSE,157,4.0,7.0,37,0.00,,,0.00,,2013-03-14 14:42:00,
2013-03-14 07:53:00,54.0,28.0,-100.00,SSE,157,4.0,7.0,37,0.00,,,0.00,,2013-03-14 14:53:00,
2013-03-14 08:02:00,54.0,28.0,-100.00,SSE,157,4.0,7.0,37,0.00,,,0.00,,2013-03-14 15:02:00,
2013-03-14 08:12:00,54.0,28.0,-100.00,SSE,157,4.0,7.0,37,0.00,,,0.00,,2013-03-14 15:12:00,
2013-03-14 08:43:00,54.0,28.0,-100.00,SSE,162,4.0,7.0,36,0.00,,,0.00,,2013-03-14 15:43:00,
2013-03-14 08:52:00,54.0,28.0,-100.00,SSE,162,4.0,7.0,36,0.00,,,0.00,,2013-03-14 15:52:00,
2013-03-14 09:02:00,54.0,28.0,-100.00,SSE,162,4.0,7.0,36,0.00,,,0.00,,2013-03-14 16:02:00,
2013-03-14 09:12:00,54.0,28.0,-100.00,SSE,162,4.0,7.0,36,0.00,,,0.00,,2013-03-14 16:12:00,
2013-03-14 09:33:00,62.0,32.0,-100.00,North,353,2.0,6.0,32,0.00,,,0.00,,2013-03-14 16:33:00,
2013-03-14 09:52:00,62.0,32.0,-100.00,North,353,2.0,6.0,32,0.00,,,0.00,,2013-03-14 16:52:00,
2013-03-14 10:02:00,62.0,32.0,-100.00,North,353,2.0,6.0,32,0.00,,,0.00,,2013-03-14 17:02:00,
2013-03-14 10:12:00,62.0,32.0,-100.00,North,353,2.0,6.0,32,0.00,,,0.00,,2013-03-14 17:12:00,
2013-03-14 10:42:00,68.0,30.0,-100.00,SW,217,2.0,6.0,24,0.00,,,0.00,,2013-03-14 17:42:00,
2013-03-14 10:52:00,68.0,30.0,-100.00,SW,217,2.0,6.0,24,0.00,,,0.00,,2013-03-14 17:52:00,
2013-03-14 11:02:00,68.0,30.0,-100.00,SW,217,2.0,6.0,24,0.00,,,0.00,,2013-03-14 18:02:00,
2013-03-14 12:02:00,72.0,27.0,-100.00,NNE,18,3.0,7.0,19,0.00,,,0.00,,2013-03-14 19:02:00,
2013-03-14 13:42:00,81.0,29.0,-100.00,NW,306,3.0,7.0,15,-99.99,,,0.00,,2013-03-14 20:42:00,
2013-03-14 13:52:00,81.0,29.0,-100.00,NW,306,3.0,7.0,15,-99.99,,,0.00,,2013-03-14 20:52:00,
2013-03-14 14:02:00,81.0,29.0,-100.00,NW,306,3.0,7.0,15,-99.99,,,0.00,,2013-03-14 21:02:00,
2013-03-14 14:43:00,84.0,30.0,-100.00,North,357,4.0,7.0,14,0.00,,,0.00,,2013-03-14 21:43:00,
2013-03-14 14:53:00,84.0,30.0,-100.00,North,357,4.0,7.0,14,0.00,,,0.00,,2013-03-14 21:53:00,
2013-03-14 15:03:00,84.0,30.0,-100.00,North,357,4.0,7.0,14,0.00,,,0.00,,2013-03-14 22:03:00,
2013-03-14 15:42:00,84.0,28.0,-100.00,SW,235,7.0,14.0,13,0.00,,,0.00,,2013-03-14 22:42:00,
2013-03-14 15:52:00,84.0,28.0,-100.00,SW,235,7.0,14.0,13,0.00,,,0.00,,2013-03-14 22:52:00,
2013-03-14 16:33:00,82.0,37.0,-100.00,WSW,238,14.0,21.0,20,0.00,,,0.00,,2013-03-14 23:33:00,
2013-03-14 17:02:00,82.0,37.0,-100.00,WSW,238,14.0,21.0,20,0.00,,,0.00,,2013-03-15 00:02:00,
2013-03-14 17:42:00,79.0,37.0,-100.00,WSW,251,12.0,26.0,22,0.00,,,0.00,,2013-03-15 00:42:00,
2013-03-14 17:52:00,79.0,37.0,-100.00,WSW,251,12.0,26.0,22,0.00,,,0.00,,2013-03-15 00:52:00,
2013-03-14 18:02:00,79.0,37.0,-100.00,WSW,251,12.0,26.0,22,0.00,,,0.00,,2013-03-15 01:02:00,
2013-03-14 18:11:00,79.0,37.0,-100.00,WSW,251,12.0,26.0,22,0.00,,,0.00,,2013-03-15 01:11:00,
2013-03-14 18:33:00,76.0,40.0,-100.00,SW,222,12.0,25.0,27,0.00,,,0.00,,2013-03-15 01:33:00,
2013-03-14 18:43:00,76.0,40.0,-100.00,SW,222,12.0,25.0,27,0.00,,,0.00,,2013-03-15 01:43:00,
2013-03-14 18:52:00,76.0,40.0,-100.00,SW,222,12.0,25.0,27,0.00,,,0.00,,2013-03-15 01:52:00,
2013-03-14 19:02:00,76.0,40.0,-100.00,SW,222,12.0,25.0,27,0.00,,,0.00,,2013-03-15 02:02:00,
2013-03-14 19:11:00,76.0,40.0,-100.00,SW,222,12.0,25.0,27,0.00,,,0.00,,2013-03-15 02:11:00,
2013-03-14 19:32:00,75.0,31.0,-100.00,SW,228,17.0,26.0,20,0.00,,,0.00,,2013-03-15 02:32:00,
2013-03-14 20:02:00,75.0,31.0,-100.00,SW,228,17.0,26.0,20,0.00,,,0.00,,2013-03-15 03:02:00,
2013-03-14 20:11:00,75.0,31.0,-100.00,SW,228,17.0,26.0,20,0.00,,,0.00,,2013-03-15 03:11:00,
2013-03-14 20:33:00,72.0,34.0,-100.00,SSW,205,8.0,25.0,25,0.00,,,0.00,,2013-03-15 03:33:00,
2013-03-14 21:03:00,72.0,34.0,-100.00,SSW,205,8.0,25.0,25,0.00,,,0.00,,2013-03-15 04:03:00,
2013-03-14 21:12:00,72.0,34.0,-100.00,SSW,205,8.0,25.0,25,0.00,,,0.00,,2013-03-15 04:12:00,
2013-03-14 21:43:00,70.0,30.0,-100.00,SSW,202,9.0,18.0,23,0.00,,,0.00,,2013-03-15 04:43:00,
2013-03-14 21:53:00,70.0,30.0,-100.00,SSW,202,9.0,18.0,23,0.00,,,0.00,,2013-03-15 04:53:00,
2013-03-14 22:12:00,70.0,30.0,-100.00,SSW,202,9.0,18.0,23,0.00,,,0.00,,2013-03-15 05:12:00,
2013-03-14 22:32:00,68.0,33.0,-100.00,SSW,213,4.0,12.0,27,0.00,,,0.00,,2013-03-15 05:32:00,
2013-03-14 22:42:00,68.0,33.0,-100.00,SSW,213,4.0,12.0,27,0.00,,,0.00,,2013-03-15 05:42:00,
2013-03-14 22:52:00,68.0,33.0,-100.00,SSW,213,4.0,12.0,27,0.00,,,0.00,,2013-03-15 05:52:00,
2013-03-14 23:02:00,68.0,33.0,-100.00,SSW,213,4.0,12.0,27,0.00,,,0.00,,2013-03-15 06:02:00,
2013-03-14 23:12:00,68.0,33.0,-100.00,SSW,213,4.0,12.0,27,0.00,,,0.00,,2013-03-15 06:12:00,
2013-03-14 23:32:00,66.0,27.0,-100.00,NE,45,2.0,9.0,23,0.00,,,0.00,,2013-03-15 06:32:00,